Вернуться в каталог

NOAA 17 DEB

АктивенPO
NORAD 48719·DEBRIS·🇺🇸 United States

Запущен Jun 24, 2002 с Vandenberg Space Force Base

Loading…

Ближайшие Пролёты (ближайшие 24 часа)

TLE

СвежийSource: Space-Track

Эпоха: Sep 14, 2026, 03:05 UTC

1 48719U 02032BC  26257.12858397  .00000375  00000-0  35765-3 0  9995
2 48719  98.3942 317.9196 0320367 263.7804  92.6765 13.65323470273510

Отслеживайте NOAA 17 DEB в реальном времени с AllMySat

Download on the App Store